FENGYUN 1C DEB

Satellite information

Favourite Embed

Satellite Type and Status

DEBRISIN ORBIT

Key statistics

Satellite FENGYUN 1C DEB at a glance.

Uptime

9715

Days in orbit

Revolutions

≈ 14.3

Per day

Orbit

SSO

Sun Synchronous Orbit

Inclination

99.1

Latest

Satellite identification and parameters

Extended collection of information and parameters for FENGYUN 1C DEB.

Object identification

Identified? True

Debris? True

Object name: FENGYUN 1C DEB

International designator: 1999-025AHP

Object number (NORAD): 30501

Object ID (CCSDS): 30501

Country: PEOPLES REPUBLIC OF CHINA (PRC)

Current information (Y/N): Y

RCS size: SMALL

Orbital parameters

Period: 101.029 minutes

Inclination: 99.0845 deg

SMA: 7185.517 km

Apoapsis: 836.563 km

Periapsis: 778.202 km

RAAN: 336.7088 deg

Eccentricy: 0.004061

Argument of periapsis: 205.1912 deg

Mean anomaly: 184.7235 deg

Mean motion: 14.25330893 rev/day

Mean motion (dot): 0.00005965 rev/day2

B* drag term: 0.0025286 1/REarth

Two-line elements (TLE)

Creation date: Dec. 12, 2025, 7:26 a.m.

Reference frame: TEME

Reference center: EARTH

Epoch: Dec. 11, 2025, 10:22 p.m. UTC

TLE line 0: 0 FENGYUN 1C DEB

TLE line 1: 1 30501U 99025AHP 25345.93217759 .00005965 00000-0 25286-2 0 9996

TLE line 2: 2 30501 99.0845 336.7088 0040610 205.1912 184.7235 14.25330893969082

Live tracking on map

Real-time ground track for satellite FENGYUN 1C DEB.

In-orbit conjunctions

A list of the most updated potential collisions computed for object FENGYUN 1C DEB.

Target Orbit TCA Probability of collision Miss distance Type
COSMOS 1867 COOLANT LEO 2025-09-22 23:12:19 0.0001604206 63.0 (m) DEBRIS
FENGYUN 1C DEB SSO 2025-07-11 13:50:54 0.0001354658 205.0 (m) DEBRIS
CZ-6A DEB LEO 2024-11-08 02:40:49 0.000870489 91.0 (m) DEBRIS

Associated space launch

Chinese polar orbiting meteorological satellite

FENGYUN 1C DEB was lifted into orbit during the mission ‘Long March 4B | Feng Yun 1C’, on board a Long March 4B space rocket.

The launch took place on May 10, 1999, 1:33 a.m. from Launch Complex 7.

For more information about the launch, click the button.

Launch to space Long March 4B | Feng Yun 1C
Long March 4B | Feng Yun 1C

Agency: N/A

Status: Launch Successful

Launch date: May 10, 1999, 1:33 a.m. UTC

Rocket: Long March 4B

Launch pad: Launch Complex 7

Location: Taiyuan Satellite Launch Center, People's Republic of China

...

Latest news about this satellite

There are no fresh news available about this satellite. Check back as we update our databases every day.


Newsletter sign-up

Weekly statistics, charts and insights to help you stay on top of the space industry.